Overview Statistics Trail Chart Weather Telemetry Raw packets
 

This is the latest recevied weather packets stored in our database for station/object MeshWX-1. If no packets are shown the sender has not sent any weather packets the latest 10 day(s).

<< 21 22 23 24 25 26 27 >>
Time Temp. Humidity Pressure Rain* Wind** Luminosity Snow
1788108019 31.67° C 33% 997 hPa - - - -
1788107864 32.78° C 30% 997 hPa - - - -
1788106142 32.78° C 30% 997 hPa - - - -
1788106057 32.78° C 30% 997 hPa - - - -
1788104042 35° C 27% 997.1 hPa - - - -
1788103986 35° C 27% 997.1 hPa - - - -
1788103937 36.11° C 26% 997.1 hPa - - - -
1788102001 36.11° C 26% 997.1 hPa - - - -
1788101952 36.11° C 26% 997.1 hPa - - - -
1788099961 38.89° C 22% 997.3 hPa - - - -
1788099869 40° C 22% 997.4 hPa - - - -
1788097992 40° C 22% 997.4 hPa - - - -
1788097981 39.44° C 22% 997.6 hPa - - - -
1788096007 39.44° C 22% 997.6 hPa - - - -
1788095977 40° C 24% 997.9 hPa - - - -
1788095941 40° C 24% 997.9 hPa - - - -
1788093970 40° C 24% 997.9 hPa - - - -
1788093901 39.44° C 23% 998.1 hPa - - - -
1788091943 39.44° C 23% 998.1 hPa - - - -
1788091905 39.44° C 25% 998.5 hPa - - - -
1788091861 39.44° C 25% 998.5 hPa - - - -
1788089984 39.44° C 25% 998.5 hPa - - - -
1788089880 36.67° C 28% 998.9 hPa - - - -
1788087978 36.11° C 31% 999.2 hPa - - - -
1788087840 36.11° C 31% 999.2 hPa - - - -

* Rain since midnight (hover to see other rain measurements)
** Current wind speed in m/s (hover to see current wind gust speed)